Theta_e
353 353 353 358 364 364 368 368 358 352 349 346 340 343 347 355 360 361 343 345 341 348 347 349 348 350 350 351 350 347 349 349 350 350 352 350 352 352 352 352 353 353 352 352 353 351 351 351 350
352 353 356 363 366 371 370 363 361 358 351 343 351 353 354 360 351 345 346 343 345 347 346 348 348 350 351 349 348 351 351 351 349 351 350 352 353 352 354 352 353 352 351 352 351 350 349 348 349
351 354 361 364 365 370 370 364 361 354 348 346 356 352 352 355 346 342 345 342 344 347 345 348 348 350 350 352 352 350 352 351 351 351 350 352 353 353 354 353 354 353 351 348 349 349 348 347 348
354 357 358 365 365 361 364 361 357 357 353 353 353 358 350 348 343 347 345 341 347 347 346 347 349 345 352 351 349 349 349 352 351 352 351 352 354 354 353 353 353 352 353 352 352 352 348 348 351
356 357 363 364 364 360 359 357 356 358 356 354 354 354 352 348 350 346 344 346 349 348 349 352 349 351 350 351 353 349 351 352 351 352 350 352 354 353 353 354 354 352 353 353 353 352 351 351 347
356 355 364 366 363 361 358 357 357 357 355 352 352 352 351 352 347 346 346 348 349 349 350 352 351 352 349 347 350 350 347 351 353 352 352 353 354 353 353 354 354 353 353 351 350 350 349 345 347
357 361 365 363 363 362 360 357 358 357 356 354 348 353 354 352 347 347 348 348 349 349 350 352 352 352 348 349 347 346 350 351 350 349 348 350 351 352 352 352 353 353 353 352 351 350 349 344 345
354 358 362 361 362 362 358 357 355 355 357 348 348 355 356 351 350 347 348 350 351 350 351 352 352 352 352 348 350 352 353 352 349 346 348 348 349 350 349 347 347 352 351 352 351 348 343 346 345
353 362 363 359 359 359 356 358 354 352 354 352 350 349 347 350 349 349 349 352 352 353 351 350 351 352 352 353 352 353 353 352 350 347 344 346 344 346 343 341 346 348 351 352 352 349 349 348 345
354 359 357 355 353 356 356 357 356 356 354 354 354 351 348 349 347 347 350 352 350 352 350 349 351 352 352 353 353 354 353 352 350 346 342 346 344 345 341 342 343 346 349 351 351 348 345 345 345
350 354 353 351 353 354 356 357 354 357 358 354 357 354 350 348 347 348 350 350 348 349 349 350 352 351 352 353 353 352 352 349 346 346 346 346 345 344 344 342 341 344 348 350 349 344 341 343 345
353 350 350 350 351 355 356 355 355 355 355 351 352 352 351 347 348 349 348 348 347 349 349 349 348 350 352 351 351 346 350 349 345 344 343 345 344 343 344 345 344 345 344 345 345 342 341 340 342
351 351 350 350 351 353 354 357 358 356 353 349 350 351 351 348 347 348 347 346 345 348 349 348 347 347 349 347 348 349 350 348 347 345 344 342 348 344 343 342 344 343 348 346 346 344 340 337 338
349 351 351 354 353 354 357 358 356 354 350 350 351 352 351 349 347 347 345 344 345 345 346 345 346 344 347 347 347 349 349 350 346 346 347 345 343 344 344 343 343 346 345 344 343 342 342 343 338
349 350 353 357 356 358 355 361 359 352 350 352 352 352 350 349 348 347 344 342 342 344 343 343 343 342 340 343 345 347 347 348 347 347 347 346 346 346 345 343 348 348 344 344 340 341 342 346 345
348 351 359 357 356 355 352 365 355 350 350 353 352 350 350 349 348 348 345 340 339 341 343 343 344 345 346 347 347 350 350 347 347 347 348 347 347 346 345 344 347 346 343 343 340 347 345 347 348
344 348 355 360 354 356 356 364 356 350 347 350 352 349 348 349 347 346 346 344 338 339 342 341 345 347 347 347 348 348 349 349 349 348 347 348 348 347 347 346 347 344 344 344 346 348 348 348 347
344 343 345 358 356 357 360 362 358 351 348 348 349 348 348 347 347 346 347 346 342 338 339 341 345 348 346 347 348 349 348 348 347 349 349 348 348 347 347 347 346 344 347 345 346 347 349 348 346
346 343 343 341 352 358 359 363 361 354 350 347 347 346 347 347 345 345 346 346 345 341 339 342 346 348 348 348 350 350 349 347 346 346 349 349 349 348 348 347 345 345 347 346 347 347 348 349 348
346 345 343 341 351 356 362 363 361 357 354 350 347 346 346 345 344 343 345 345 346 346 346 344 346 346 348 350 350 349 347 346 345 348 350 350 350 350 349 348 348 347 347 343 346 347 347 344 348
339 340 342 346 356 356 360 365 364 359 357 352 347 345 344 344 344 343 343 344 345 347 347 347 345 346 346 348 348 348 346 341 342 347 352 349 350 351 351 350 348 348 348 348 347 346 343 343 344
331 333 340 349 356 358 356 358 364 362 361 358 354 347 344 343 342 343 342 343 343 344 344 345 345 345 345 345 349 349 347 347 348 350 349 348 348 349 351 350 349 348 349 349 348 347 344 345 347
335 337 341 353 355 359 360 361 357 359 363 361 357 353 346 343 342 341 341 342 342 340 340 343 344 343 343 342 346 349 348 347 347 349 348 348 348 348 350 349 350 348 348 350 348 348 347 344 347
340 346 346 349 354 356 354 360 359 362 360 358 356 354 352 347 343 341 339 339 340 340 340 339 342 343 340 341 341 344 348 347 347 348 351 352 351 349 350 349 349 345 348 349 349 348 348 350 346
338 344 348 351 356 350 343 359 351 351 353 354 356 354 352 350 348 345 343 339 338 338 338 340 342 345 346 343 342 342 344 343 343 345 347 349 351 351 350 349 348 344 339 342 346 347 348 347 349
333 331 332 336 340 339 344 353 350 345 342 349 352 352 351 351 350 348 346 342 339 339 339 341 342 344 346 345 344 344 343 347 346 346 345 346 348 349 346 348 347 343 344 343 340 347 350 349 351
327 329 328 335 340 348 348 347 342 342 346 347 349 352 353 351 350 349 347 344 343 341 341 342 342 342 342 342 343 344 344 344 345 343 342 344 342 344 345 345 349 348 345 345 345 344 346 348 350
327 328 333 340 346 346 343 347 345 349 348 348 351 351 350 352 351 349 348 346 344 343 342 342 343 342 339 341 342 343 343 341 342 339 338 337 332 336 339 348 348 349 349 349 348 348 347 350 349
329 331 330 338 341 339 338 337 341 345 347 347 349 352 353 352 351 350 347 345 345 344 342 341 342 342 343 342 341 340 340 338 337 338 338 332 337 340 342 345 347 351 354 353 352 351 351 352 352
331 332 330 333 337 342 341 337 340 344 340 345 349 350 350 351 351 351 349 346 343 343 342 342 343 343 343 343 341 340 337 339 339 341 336 345 341 340 344 347 352 351 354 357 355 353 355 353 354
Wind_Speed
6 4 1 1 0 1 2 4 5 14 10 7 15 4 7 6 2 2 13 10 24 20 17 15 15 13 13 12 13 13 11 11 11 12 12 12 12 12 13 14 16 16 16 16 17 18 17 17 17
8 2 1 1 1 2 3 4 12 5 8 19 9 9 4 4 5 10 13 22 24 21 18 15 15 13 13 13 13 11 12 11 11 11 11 13 12 13 13 15 16 17 17 17 17 17 16 15 14
7 2 1 2 2 3 3 6 13 15 12 13 5 7 2 3 9 20 16 24 23 19 17 15 15 11 12 12 11 12 10 10 9 10 10 12 12 12 13 14 15 16 17 17 16 15 16 14 13
3 2 2 1 5 2 3 10 15 15 9 6 9 7 4 2 17 10 24 24 22 19 16 16 13 10 10 9 10 12 11 11 10 9 10 12 12 13 13 14 13 14 15 16 15 15 14 14 13
1 1 2 3 4 3 4 11 9 9 6 7 3 4 7 6 11 25 24 22 21 18 15 13 12 10 8 8 10 10 12 12 11 9 9 12 12 14 14 13 14 13 14 14 14 14 13 12 12
1 0 2 4 4 4 6 9 9 8 7 9 9 9 4 12 22 23 22 20 18 17 14 12 10 8 6 6 8 9 11 12 11 10 11 12 12 13 13 12 13 12 13 14 14 14 11 9 7
0 2 3 2 5 5 6 10 6 9 11 6 12 6 5 15 22 22 21 18 16 14 13 11 9 6 5 4 5 10 13 12 11 9 11 13 12 12 10 10 11 12 13 12 12 12 9 7 5
2 1 2 2 2 4 8 9 9 7 6 16 9 7 8 15 21 21 20 17 15 14 12 11 9 7 6 5 10 16 15 12 11 10 12 12 11 11 10 7 7 10 11 11 10 9 8 7 7
1 2 3 3 2 3 12 7 5 5 15 4 2 9 17 27 24 21 20 17 15 13 12 10 9 8 7 8 11 15 14 13 12 12 15 13 11 11 11 6 4 9 11 11 10 9 7 7 9
2 2 2 1 3 2 12 10 10 7 13 7 11 17 28 28 26 23 20 21 18 15 13 11 9 9 9 7 10 11 12 13 12 12 13 12 11 11 13 11 6 6 10 12 10 8 7 6 7
0 2 1 1 5 4 11 9 4 13 7 9 17 22 24 26 25 23 20 19 20 16 13 12 10 10 9 8 9 8 9 10 11 9 9 10 10 12 11 12 8 7 10 12 10 8 6 5 5
4 3 4 2 3 4 10 9 6 2 1 11 19 25 25 21 21 21 22 19 18 16 13 12 11 11 8 8 8 8 7 7 9 9 9 8 9 11 11 10 10 10 9 9 8 7 7 6 5
3 2 2 6 4 7 9 6 5 3 4 17 20 24 20 20 21 18 19 18 17 17 14 13 11 12 10 10 8 6 6 6 6 7 7 7 7 8 8 9 9 8 7 6 6 6 7 6 5
4 6 7 3 8 9 9 6 0 6 11 16 19 21 18 19 23 20 19 18 17 17 15 14 13 13 10 10 9 7 6 5 5 5 5 6 9 7 8 10 9 7 6 5 4 4 5 6 7
3 3 6 7 9 5 12 7 7 8 13 16 17 18 17 18 21 20 21 20 21 20 17 16 14 13 12 10 8 7 7 6 6 6 6 4 7 8 9 7 6 6 7 6 4 4 4 5 6
2 1 2 3 6 5 4 4 7 11 12 14 16 15 15 16 21 18 19 19 21 18 19 17 15 13 12 10 9 7 7 5 7 8 9 7 5 6 8 6 6 8 7 9 6 2 6 5 6
0 3 2 4 1 6 1 5 10 11 10 12 15 16 14 14 13 15 18 17 23 21 19 19 16 14 13 11 10 10 8 5 4 4 7 8 7 6 6 7 5 9 7 6 5 3 3 2 5
5 3 1 3 8 4 4 6 12 12 11 12 14 14 16 16 18 23 22 19 20 21 21 19 17 15 16 13 10 10 9 8 6 3 4 6 7 6 5 7 8 10 8 7 6 4 2 3 6
5 7 7 3 6 6 5 8 14 13 11 13 14 15 16 17 19 20 22 21 19 19 19 20 20 17 15 14 9 9 9 10 10 8 6 5 5 5 5 6 8 10 9 8 7 6 6 6 8
8 8 5 3 7 6 6 9 12 14 14 14 16 17 18 16 15 18 21 21 21 22 21 20 21 21 20 15 14 10 8 10 9 7 6 7 7 7 6 6 8 10 10 10 9 9 7 8 8
4 5 3 3 6 4 9 6 11 11 10 12 14 16 17 18 19 17 20 23 24 23 22 23 26 25 22 21 17 14 10 9 8 9 6 4 4 6 10 9 9 9 10 9 10 10 13 11 9
5 5 5 9 8 1 4 1 10 12 15 14 16 16 18 20 20 19 22 22 23 25 23 22 26 27 26 25 20 18 13 9 8 7 7 7 4 6 10 11 11 11 9 9 9 9 11 10 8
4 7 7 9 5 2 5 4 5 12 14 18 17 18 19 19 21 21 25 27 25 21 22 23 25 28 30 29 28 20 17 11 7 6 6 6 6 7 9 10 10 11 10 10 10 10 10 12 9
13 12 10 5 1 4 1 5 4 8 17 15 17 18 18 18 19 21 27 29 28 27 24 26 24 26 29 28 27 26 19 17 10 9 8 7 7 9 8 8 8 8 11 12 10 11 9 9 11
4 7 3 2 3 3 1 6 9 8 8 13 19 18 18 18 18 19 19 25 28 28 27 26 24 25 25 27 26 27 26 22 17 12 9 7 7 8 10 9 9 7 8 10 10 9 12 14 14
12 4 3 2 3 1 3 5 0 2 4 8 14 18 17 18 17 18 21 26 27 28 27 25 23 25 25 25 24 25 26 19 16 13 11 9 8 8 12 11 8 9 6 7 12 10 10 10 12
6 5 2 6 1 3 1 4 8 7 7 10 13 15 19 19 19 20 21 25 25 26 27 25 25 24 26 29 28 26 26 24 17 17 16 13 13 11 11 14 15 13 11 10 16 16 13 11 11
3 7 3 2 2 3 2 5 5 3 10 12 13 15 16 18 19 18 19 23 22 23 24 24 24 27 29 27 27 28 27 26 22 25 22 19 17 15 14 14 15 16 18 17 16 17 13 13 11
4 3 5 3 2 2 3 3 2 4 8 13 10 9 12 14 15 15 16 19 21 21 21 22 23 24 24 26 27 26 25 29 29 27 25 22 16 14 16 15 15 13 13 13 12 13 13 12 12
1 2 4 4 4 1 2 3 1 4 3 7 9 8 7 9 9 11 14 17 19 22 22 24 23 23 24 23 23 25 27 22 23 23 20 14 13 15 15 15 13 13 14 12 14 14 11 13 13
Wind_Direction
144 156 199 242 277 59 75 70 83 112 126 142 152 175 151 44 25 66 141 155 144 146 151 147 143 142 142 141 138 139 137 134 132 139 135 126 120 113 108 107 109 111 109 112 113 112 109 107 102
145 136 274 58 44 117 80 90 121 103 126 132 113 113 55 80 68 120 132 150 147 146 151 149 148 148 146 146 148 146 146 142 138 141 144 134 128 116 113 111 112 112 112 113 113 112 110 109 107
138 67 7 28 54 45 83 100 108 112 124 143 105 56 63 69 118 142 145 149 146 147 152 152 146 151 151 151 152 153 154 151 145 141 141 128 136 125 123 117 115 118 116 114 115 115 118 121 113
146 98 80 33 50 82 63 127 125 126 108 82 106 75 81 90 137 150 146 148 147 150 153 154 148 157 155 153 158 161 162 153 153 145 146 135 138 135 127 126 125 118 116 119 119 119 125 122 114
40 108 87 75 66 81 123 131 132 130 110 107 89 97 104 124 128 141 146 150 148 151 152 153 157 155 157 166 166 170 159 158 156 148 145 137 143 141 131 128 124 125 123 128 124 121 128 128 124
54 253 77 62 78 105 138 158 130 117 120 126 107 111 102 139 140 147 150 152 152 152 153 152 156 153 161 168 172 169 161 155 150 151 143 140 145 139 132 128 127 128 126 124 124 120 124 126 125
58 85 74 74 90 113 141 161 151 130 135 124 141 103 123 148 151 151 151 153 153 155 156 150 150 149 156 157 169 173 160 145 144 147 138 138 139 134 132 128 132 132 131 129 127 128 125 117 106
171 106 123 95 93 103 141 156 136 138 102 131 141 156 162 163 154 152 150 151 152 157 160 151 147 140 125 110 109 129 137 143 137 130 122 128 128 121 115 128 137 136 129 131 131 127 118 98 97
306 70 42 71 45 12 155 138 109 93 140 136 125 149 150 154 153 146 147 154 155 159 161 156 147 137 126 106 112 122 130 131 129 119 127 128 129 137 148 154 135 135 132 132 134 130 117 108 100
290 72 40 343 327 260 179 152 136 134 142 115 93 115 140 151 158 157 161 162 165 166 167 161 150 142 138 121 122 122 129 138 132 134 138 141 142 147 157 141 143 139 130 130 131 145 141 128 115
66 98 158 19 345 217 163 143 123 147 185 170 153 147 153 159 162 161 164 170 172 170 167 165 162 150 146 144 142 137 134 138 139 144 150 150 149 146 155 163 161 153 149 145 155 147 159 154 132
358 244 246 274 19 107 156 141 105 144 115 157 155 156 154 162 163 170 171 171 172 174 171 168 167 158 151 153 156 155 145 146 149 152 157 164 151 150 158 167 166 162 150 157 158 152 154 155 148
239 266 232 238 245 113 110 97 111 43 73 137 145 154 156 163 166 175 176 176 174 176 174 172 169 164 161 158 161 161 159 159 165 165 179 186 177 170 165 176 182 177 149 153 163 169 175 171 165
302 285 299 339 184 139 120 92 105 71 126 139 153 157 158 166 171 172 181 178 179 176 176 172 172 172 173 172 176 178 182 180 184 192 204 212 205 208 201 186 187 185 171 178 184 191 187 187 190
286 350 118 111 128 118 127 71 79 118 135 144 157 159 162 168 173 181 183 183 181 182 174 175 176 180 183 187 196 210 224 230 229 227 225 222 214 225 219 204 181 185 194 193 184 252 216 213 210
291 220 133 154 144 143 202 121 135 145 144 152 164 162 174 176 181 189 191 187 193 183 178 180 178 186 196 197 204 220 228 245 259 243 237 240 247 240 233 217 203 204 201 193 217 226 245 221 214
8 88 106 169 223 156 237 127 155 151 159 162 171 171 183 180 184 195 202 196 199 190 185 186 186 193 207 214 224 235 235 243 303 267 243 237 246 243 230 229 229 210 204 209 207 203 171 201 192
332 331 161 180 194 172 163 119 157 168 173 174 178 183 184 183 194 196 207 204 197 195 190 192 193 200 208 215 220 216 227 249 276 292 253 232 242 258 252 240 224 214 217 224 213 218 184 165 178
290 287 283 255 164 178 190 158 172 174 182 183 188 192 194 196 191 194 195 197 196 197 195 192 193 203 206 205 208 216 231 251 270 273 275 242 238 256 265 239 226 221 216 224 233 224 218 198 187
253 269 289 190 150 186 162 159 177 182 193 197 194 195 197 197 191 192 192 197 200 198 199 196 202 204 209 213 217 223 240 252 257 255 268 255 248 249 248 246 233 230 221 231 224 221 230 231 198
242 238 183 116 138 72 148 163 187 204 207 201 208 209 199 198 196 195 195 197 201 203 204 204 208 210 213 214 218 226 237 241 239 237 237 248 255 255 250 255 244 241 234 228 215 222 226 230 221
344 221 160 145 179 236 224 291 205 196 209 212 206 203 206 203 205 203 200 201 200 206 205 207 210 214 219 222 220 220 221 222 229 226 242 248 265 282 260 254 252 250 246 247 236 234 232 236 226
357 129 132 141 143 269 201 265 120 190 212 215 212 208 206 202 202 204 211 211 207 206 211 216 217 220 224 223 224 226 232 237 236 236 247 253 271 279 278 264 263 271 268 258 246 229 225 234 237
138 107 98 113 200 258 81 242 196 182 218 208 205 207 208 205 202 203 209 214 215 216 214 222 223 226 228 230 232 234 232 231 234 232 238 255 268 282 295 274 265 269 251 254 259 244 238 239 232
173 186 124 135 214 279 53 220 271 191 201 197 193 198 201 205 202 203 201 204 213 216 218 220 218 219 222 229 231 231 233 234 239 242 244 243 251 277 299 301 272 275 280 268 272 255 236 233 228
186 258 216 194 223 22 145 231 231 77 217 168 180 185 190 199 205 205 205 206 205 209 213 215 216 217 218 226 229 230 235 238 244 255 262 263 270 283 292 298 276 264 306 285 275 260 247 237 240
168 208 65 110 100 262 319 268 242 229 162 155 161 174 187 195 202 205 205 206 208 208 211 213 216 221 221 226 229 233 237 242 250 261 267 268 274 282 291 286 288 282 266 273 270 260 254 244 234
259 130 168 178 178 251 224 282 271 163 188 188 186 195 197 197 198 200 206 207 210 212 213 214 220 226 230 229 231 235 239 246 254 265 264 262 271 281 284 272 274 277 278 273 260 264 256 241 236
151 213 68 101 309 250 275 247 198 262 206 199 192 191 190 194 197 199 198 201 205 210 215 217 218 224 227 231 234 239 242 248 253 258 259 259 265 291 296 290 280 269 258 275 260 258 254 246 242
181 266 193 233 193 277 307 265 46 300 206 184 161 160 161 174 184 185 193 193 198 204 208 211 215 218 224 227 232 236 243 245 247 247 244 247 271 291 295 294 283 286 279 259 254 264 248 253 239